Weather History for Cozumel, Mexico

Change the Weather History Date:

Friday, July 26, 2013

  Actual Average Record
Temperature  
Mean Temperature 78 °F -  
Max Temperature 86 °F 89 °F 93 °F (1997)
Min Temperature 69 °F 76 °F 69 °F (2010)
Cooling Degree Days 12    
Growing Degree Days 28 (Base 50)    
Moisture  
Dew Point 73 °F    
Average Humidity 86    
Maximum Humidity 100    
Minimum Humidity 66    
Precipitation  
Precipitation 0.00 in - - ()
Sea Level Pressure  
Sea Level Pressure 30.06 in    
Wind  
Wind Speed 3 mph ()    
Max Wind Speed 9 mph    
Max Gust Speed -    
Visibility 7.5 miles    
Events      
Averages and records for this station are not official NWS values.
T = Trace of Precipitation, MM = Missing Value Source: Averaged Metar Reports

Daily Weather History Graph

Daily Weather History Graph

Search for Another Location

Airport:

Trip Planner

Search our weather history database for the weather conditions in past years. The results will help you decide how hot, cold, wet, or windy it might be!

Date:

Astronomy

Jul. 26, 2013 Rise Set
Actual Time 6:20 AM CDT 7:28 PM CDT
Civil Twilight 5:56 AM CDT 7:51 PM CDT
Nautical Twilight 5:28 AM CDT 8:19 PM CDT
Astronomical Twilight 4:59 AM CDT 8:48 PM CDT
Moon 10:29 PM CDT (7/26) 10:12 AM CDT (7/26)
Length of Visible Light 13h 55m
Length of Day
13h 07m
Waning Gibbous, 80% of the Moon is Illuminated
Jul 26
Waning Gibbous
Jul 29
Last Quarter
Aug 6
New
Aug 14
First Quarter
Aug 20
Full

Hourly Weather History & Observations

Time (CDT) Temp. Heat Index Dew Point Humidity Pressure Visibility Wind Dir Wind Speed Gust Speed Precip Events Conditions
12:42 AM 73.4 °F - 73.4 °F 100% 30.06 in 7.0 mi Calm Calm - N/A   Clear
1:45 AM 73.4 °F - 73.4 °F 100% 30.06 in 7.0 mi East 3.5 mph - N/A   Clear
3:08 AM 71.6 °F - 71.6 °F 100% 30.04 in 7.0 mi East 3.5 mph - N/A   Clear
3:53 AM 71.6 °F - 71.6 °F 100% 29.94 in 7.0 mi Calm Calm - N/A   Clear
4:54 AM 71.6 °F - 71.6 °F 100% 30.04 in 7.0 mi Calm Calm - N/A   Clear
5:46 AM 69.8 °F - 69.8 °F 100% 30.04 in 7.0 mi Calm Calm - N/A   Partly Cloudy
6:42 AM 69.8 °F - 69.8 °F 100% 30.03 in 7.0 mi Calm Calm - N/A   Clear
7:44 AM 75.2 °F - 73.4 °F 94% 30.05 in 8.0 mi Calm Calm - N/A   Scattered Clouds
8:48 AM 80.6 °F 86.2 °F 75.2 °F 84% 30.06 in 8.0 mi East 4.6 mph - N/A   Scattered Clouds
9:40 AM 82.4 °F 88.2 °F 73.4 °F 74% 30.10 in 8.0 mi ESE 4.6 mph - N/A   Scattered Clouds
10:40 AM 84.2 °F 90.9 °F 73.4 °F 70% 30.09 in 8.0 mi East 4.6 mph - N/A   Scattered Clouds
11:42 AM 86.0 °F 93.4 °F 73.4 °F 66% 30.08 in 8.0 mi ESE 6.9 mph - N/A   Scattered Clouds
12:43 PM 86.0 °F 93.4 °F 73.4 °F 66% 30.07 in 8.0 mi SSE 8.1 mph - N/A   Scattered Clouds
1:43 PM 84.2 °F 90.9 °F 73.4 °F 70% 30.07 in 8.0 mi ENE 8.1 mph - N/A   Scattered Clouds
2:49 PM 86.0 °F 95.1 °F 75.2 °F 70% 30.06 in 8.0 mi ENE 9.2 mph - N/A   Scattered Clouds
3:43 PM 86.0 °F 95.1 °F 75.2 °F 70% 30.09 in 8.0 mi ENE 9.2 mph - N/A   Scattered Clouds
4:42 PM 84.2 °F 92.3 °F 75.2 °F 74% 30.06 in 8.0 mi NE 9.2 mph - N/A   Scattered Clouds
5:40 PM 82.4 °F 89.5 °F 75.2 °F 79% 30.05 in 8.0 mi ENE 5.8 mph - N/A   Scattered Clouds
6:41 PM 80.6 °F 86.2 °F 75.2 °F 84% 30.03 in 8.0 mi East 4.6 mph - N/A   Clear
7:40 PM 77.0 °F - 73.4 °F 89% 30.05 in 8.0 mi ENE 3.5 mph - N/A   Clear
8:51 PM 75.2 °F - 73.4 °F 94% 30.07 in 7.0 mi Calm Calm - N/A   Clear
9:48 PM 75.2 °F - 73.4 °F 94% 30.10 in 7.0 mi Calm Calm - N/A   Clear
10:46 PM 75.2 °F - 73.4 °F 94% 30.07 in 7.0 mi Calm Calm - N/A   Partly Cloudy
11:49 PM 75.2 °F - 73.4 °F 94% 30.07 in 7.0 mi Calm Calm - N/A   Partly Cloudy